Weather in Bedford

United Kingdom     52°08′08″N   0°27′31″E
temp.,
°C
wind,
m/s
gust,
m/s
humid.,
%
clouds,
%
prec.,
mm/h
press.,
hPa
HPBL,
m
25 february, thu
thu2500:00+10ssw71580100 0.0 1020786
03:00+10wsw61083100 0.0 1021499
06:00+8wsw41089100 0.0 1023419
09:00+9wsw4787100 0.0 1025409
12:00+11wnw5673100 0.1 1027938
15:00+11w456399 0.0 10281146
18:00+7w338091 0.0 102949
21:00+5nw36820 0.0 1032118
26 february, fri
fri2600:00+4nw34800 0.0 103481
03:00+3wnw33890 0.0 103467
06:00+2wnw33910 0.0 103657
09:00+5w24830 0.0 1037161
12:00+9wnw23630 0.0 1038857
15:00+10wnw23580 0.0 10371111
18:00+6w23760 0.0 103722
21:00+4wsw23810 0.0 103823
27 february, sat
sat2700:00+3w23850 0.0 103939
03:00+3w23900 0.0 103923
06:00+2w12900 0.0 103922
09:00+5wnw22800 0.0 1040133
12:00+9wnw22650 0.0 1040618
15:00+10nnw22610 0.0 1039915
18:00+6nne22770 0.0 103822
21:00+4ene12830 0.0 103922
28 february, sun
sun2800:00+3ne12880 0.0 103922
03:00+2ne22920 0.0 103822
06:00+2ne23930 0.0 103834
09:00+5ne35890 0.0 1037251
12:00+9ene46805 0.0 1037644
15:00+9ene478078 0.0 1035828
18:00+7e388489 0.1 1034321
21:00+3ene48936 0.0 1035200
1 march, mon
mon100:00+2ne48953 0.0 1035197
03:00+1ne38970 0.0 1033181
06:00+1ne37972 0.0 1032165
09:00+4ene58904 0.0 1031319
12:00+9e58782 0.0 1030648
15:00+10e56750 0.0 1028828
18:00+7ese478335 0.0 1028260
21:00+3e36936 0.0 1028132